Home   Weather   Glacier National Park   Past weeks
Flag for USA

Past Weather in Glacier National Park, Montana, USA — Yesterday and Last 2 Weeks

Now
51 °F

Partly sunny.


Feels Like: 49 °F
Forecast: 52 / 31 °F
Wind: 6 mph from East

Location: Kalispell - Glacier Park International

Current Time: Oct 14, 2019 at 5:39:44 pm

Latest Report: Oct 14, 2019 at 4:55 pm


Visibility: 10 mi

Pressure: 30.07 "Hg

Humidity: 42%

Dew Point: 29 °F

Location of Glacier National ParkLocation

Past Weather in Glacier National Park — Graph

°F

Glacier National Park Temperature Yesterday

Maximum temperature yesterday: 52 °F (at 3:55 pm)
Minimum temperature yesterday: 24 °F (at 7:55 am)
Average temperature yesterday: 38 °F

High & Low Weather Summary for the Past Weeks

 TemperatureHumidityPressure
High65 °F (Oct 7, 4:55 pm)96% (Oct 2, 4:55 am)30.58 "Hg (Oct 2, 4:55 am)
Low13 °F (Oct 10, 6:55 am)33% (Oct 7, 4:55 pm)29.52 "Hg (Oct 8, 4:55 am)
Average38 °F69%30.13 "Hg
* Reported Sep 29 3:55 pm — Oct 14 3:55 pm, Glacier National Park. Weather by CustomWeather, © 2019

Note: Actual official high and low records may vary slightly from our data, if they occured in-between our weather recording intervals... More about our weather records

Advertising

Glacier National Park Weather History for the Previous 24 Hours

Scroll right to see more
 ConditionsComfort  
Time TempWeatherWind HumidityBarometerVisibility
3:55 pm
Mon, Oct 14
51 °FOvercast.3 mph44%30.05 "Hg10 mi
2:55 pm52 °FPartly sunny.5 mph45%30.04 "Hg10 mi
1:55 pm50 °FPartly sunny.6 mph50%30.04 "Hg10 mi
12:55 pm51 °FMostly cloudy.5 mph50%30.04 "Hg10 mi
11:55 am50 °FMostly cloudy.No wind50%30.03 "Hg10 mi
10:55 am51 °FPassing clouds.3 mph50%30.01 "Hg10 mi
9:55 am48 °FPartly sunny.6 mph61%30.01 "Hg10 mi
8:55 am38 °FOvercast.5 mph86%30.01 "Hg10 mi
7:55 am39 °FPartly sunny.6 mph79%29.98 "Hg10 mi
6:55 am39 °FPartly cloudy.3 mph82%29.96 "Hg10 mi
5:55 am40 °FOvercast.No wind83%29.93 "Hg10 mi
4:55 am41 °FOvercast.No wind82%29.91 "Hg10 mi
3:55 am41 °FOvercast.No wind82%29.90 "Hg10 mi
2:55 am42 °FOvercast.No wind79%29.90 "Hg10 mi
1:55 am43 °FOvercast.No wind79%29.88 "Hg10 mi
12:55 am43 °FMostly cloudy.No wind79%29.88 "Hg10 mi
11:55 pm
Sun, Oct 13
44 °FOvercast.6 mph76%29.88 "Hg10 mi
10:55 pm45 °FMostly cloudy.8 mph71%29.89 "Hg10 mi
9:55 pm44 °FOvercast.6 mph73%29.90 "Hg10 mi
8:55 pm47 °FOvercast.5 mph64%29.91 "Hg10 mi
7:55 pm48 °FMostly cloudy.3 mph54%29.91 "Hg10 mi
6:55 pm47 °FMostly cloudy.No wind56%29.90 "Hg10 mi
5:55 pm49 °FOvercast.No wind50%29.88 "Hg10 mi
Weather by CustomWeather, © 2019

See weather overview